Location: Shandelee
(41.8790°N, 74.8713°W)
Time: 12:54:38
(UTC+00:00)

SL-08 R/B - Pass Details

Date: 29 October 2020
Orbit: 946 x 994 km, 83.0° (Epoch: 01 December)

Event Time Altitude Azimuth Distance (km) Brightness Sun altitude
Rises 23:15:41 0° 351° (N) 3,653 7.6 -15.2°
Reaches altitude 10° 23:18:12 10° 351° (N) 2,697 6.9 -15.7°
Maximum altitude 23:24:22 83° 264° (W) 962 4.5 -16.8°
Drops below altitude 10° 23:30:27 10° 178° (S) 2,659 6.8 -17.9°
Sets 23:32:55 0° 177° (S) 3,598 7.5 -18.4°
